This is the latest recevied weather packets stored in our database for station/object SP1BMW-13. If no packets are shown the sender has not sent any weather packets the latest 10 day(s).
| Time | Temp. | Humidity | Pressure | Rain* | Wind** | Luminosity | Snow |
|---|---|---|---|---|---|---|---|
| 1777360496 | 9.44° C | 40% | 1026.3 hPa | 0 mm | 0.89 m/s, 47° | 320 W/m² | - |
| 1777360436 | 9.44° C | 40% | 1026.4 hPa | 0 mm | 0.45 m/s, 81° | 318 W/m² | - |
| 1777360375 | 9.44° C | 41% | 1026.6 hPa | 0 mm | 1.34 m/s, 151° | 316 W/m² | - |
| 1777360315 | 9.44° C | 42% | 1026.4 hPa | 0 mm | 0 m/s | 315 W/m² | - |
| 1777360255 | 9.44° C | 40% | 1026.6 hPa | 0 mm | 0.89 m/s, 129° | 314 W/m² | - |
| 1777360195 | 9.44° C | 40% | 1026.4 hPa | 0 mm | 0 m/s | 311 W/m² | - |
| 1777360135 | 9.44° C | 42% | 1026.6 hPa | 0 mm | 0.89 m/s, 35° | 309 W/m² | - |
| 1777360075 | 8.89° C | 42% | 1026.5 hPa | 0 mm | 0.45 m/s, 57° | 307 W/m² | - |
| 1777360015 | 8.89° C | 42% | 1026.5 hPa | 0 mm | 0 m/s | 304 W/m² | - |
| 1777359955 | 8.89° C | 42% | 1026.5 hPa | 0 mm | 0 m/s | 302 W/m² | - |
| 1777359896 | 8.89° C | 41% | 1026.3 hPa | 0 mm | 0.45 m/s, 56° | 300 W/m² | - |
| 1777359836 | 8.89° C | 41% | 1026.5 hPa | 0 mm | 0.89 m/s, 50° | 298 W/m² | - |
| 1777359775 | 8.89° C | 42% | 1026.5 hPa | 0 mm | 0.89 m/s, 44° | 295 W/m² | - |
| 1777359715 | 8.89° C | 41% | 1026.4 hPa | 0 mm | 0.45 m/s, 57° | 292 W/m² | - |
| 1777359655 | 9.44° C | 42% | 1026.5 hPa | 0 mm | 0.89 m/s, 49° | 290 W/m² | - |
| 1777359595 | 9.44° C | 41% | 1026.3 hPa | 0 mm | 2.24 m/s, 45° | 288 W/m² | - |
| 1777359535 | 9.44° C | 39% | 1026.6 hPa | 0 mm | 2.24 m/s, 46° | 286 W/m² | - |
| 1777359475 | 9.44° C | 40% | 1026.6 hPa | 0 mm | 0 m/s | 283 W/m² | - |
| 1777359414 | 9.44° C | 43% | 1026.5 hPa | 0 mm | 0.89 m/s, 75° | 282 W/m² | - |
| 1777359355 | 8.89° C | 43% | 1026.5 hPa | 0 mm | 0.89 m/s, 49° | 278 W/m² | - |
| 1777359295 | 8.89° C | 43% | 1026.8 hPa | 0 mm | 0 m/s | 275 W/m² | - |
| 1777359234 | 8.89° C | 45% | 1026.5 hPa | 0 mm | 0.45 m/s, 53° | 271 W/m² | - |
| 1777359175 | 8.33° C | 44% | 1026.7 hPa | 0 mm | 0 m/s | 270 W/m² | - |
| 1777359115 | 8.33° C | 43% | 1026.5 hPa | 0 mm | 0.45 m/s, 50° | 269 W/m² | - |
| 1777359055 | 8.33° C | 44% | 1026.5 hPa | 0 mm | 0.45 m/s, 84° | 264 W/m² | - |
* Rain latest hour (hover to see other rain measurements)
** Current wind speed in m/s (hover to see current wind gust speed)